GW0234 Weather Reports


Display with metric or nautical units.
time (UTC)temp
F
wind
direction
speed
MPH
gust
MPH
rain 1hr
in
rain 24hr
in
rain mn
in
humidity
%
barometer
mb
20260507161612 56 294 2.0 13.0 0.00 0.00 0.00 55 1009.7
20260507154558 55 319 1.0 6.0 0.00 0.00 0.00 53 1010.1
20260507153059 55 360 3.0 12.0 0.00 0.00 0.00 55 1010.2
20260507151558 54 325 3.0 9.0 0.00 0.00 0.00 56 1010.3
20260507150057 54 20 2.0 10.0 0.00 0.00 0.00 54 1010.4
20260507144612 54 0 4.0 11.0 0.00 0.00 0.00 57 1010.7
20260507143103 54 325 2.0 8.0 0.00 0.00 0.00 58 1010.9
20260507141601 53 0 2.0 7.0 0.00 0.00 0.00 61 1011.0
20260507140056 53 360 2.0 8.0 0.00 0.00 0.00 57 1011.2
20260507134557 52 105 3.0 9.0 0.00 0.02 0.00 60 1011.2
20260507133139 51 111 3.0 8.0 0.00 0.02 0.00 61 1011.2
20260507131554 50 12 3.0 8.0 0.00 0.02 0.00 66 1011.3
20260507124601 45 0 0.0 3.0 0.00 0.05 0.00 89 1011.4
20260507123054 43 0 0.0 1.0 0.00 0.05 0.00 93 1011.6
20260507121555 39 0 0.0 1.0 0.00 0.05 0.00 92 1011.5
20260507120055 37 0 0.0 2.0 0.00 0.05 0.00 92 1011.4
20260507114609 35 58 1.0 2.0 0.00 0.08 0.00 90 1011.6
20260507113055 34 58 1.0 2.0 0.00 0.08 0.00 88 1011.4
20260507111603 34 0 0.0 2.0 0.00 0.08 0.00 87 1011.3
20260507104605 34 24 0.0 2.0 0.00 0.18 0.00 87 1011.2
20260507103057 34 0 0.0 1.0 0.00 0.18 0.00 86 1011.2
20260507101603 34 0 0.0 2.0 0.00 0.18 0.00 86 1011.1
20260507100058 34 24 1.0 2.0 0.00 0.18 0.00 86 1011.1
20260507094602 34 0 0.0 0.0 0.00 0.25 0.00 86 1010.9
20260507093105 34 0 0.0 0.0 0.00 0.25 0.00 85 1011.0
20260507091558 34 0 0.0 0.0 0.00 0.25 0.00 85 1011.1
20260507090105 34 0 0.0 0.0 0.00 0.25 0.00 84 1011.1
20260507084601 35 0 0.0 0.0 0.00 0.35 0.00 83 1011.2
20260507083056 35 0 0.0 0.0 0.00 0.35 0.00 84 1011.1
20260507081557 36 0 0.0 0.0 0.00 0.35 0.00 83 1011.2
20260507080101 36 0 0.0 0.0 0.00 0.35 0.00 83 1011.3
20260507074558 37 0 0.0 0.0 0.00 0.35 0.00 82 1011.3
20260507073109 38 0 0.0 0.0 0.00 0.35 0.00 82 1011.3
20260507071557 39 0 0.0 0.0 0.00 0.35 0.00 81 1011.3
20260507070105 40 0 0.0 0.0 0.00 0.35 0.00 80 1011.4
20260507064559 40 0 0.0 0.0 0.00 0.38 0.00 80 1011.3
20260507063054 40 0 0.0 0.0 0.00 0.38 0.00 80 1011.5
20260507061556 41 0 0.0 0.0 0.00 0.38 0.00 79 1011.6
20260507060100 41 0 0.0 0.0 0.00 0.38 0.00 78 1011.7
20260507054557 42 0 0.0 0.0 0.00 0.45 0.00 77 1011.7
20260507053124 43 0 0.0 0.0 0.00 0.45 0.00 76 1012.0
20260507051601 43 0 0.0 0.0 0.00 0.45 0.00 77 1012.1
20260507050112 43 0 0.0 0.0 0.00 0.45 0.00 76 1012.2
20260507044622 43 0 0.0 0.0 0.00 0.46 0.00 75 1012.3
20260507043111 44 0 0.0 0.0 0.00 0.46 0.00 75 1012.2
20260507041557 44 0 0.0 0.0 0.00 0.46 0.00 74 1012.3
20260507040106 44 0 0.0 2.0 0.00 0.46 0.00 73 1012.4
20260507034604 44 126 1.0 4.0 0.00 0.46 0.46 73 1012.2
20260507033124 44 83 0.0 3.0 0.00 0.46 0.46 72 1012.1
20260507031604 44 0 0.0 2.0 0.00 0.46 0.46 72 1012.0
20260507030110 44 0 0.0 3.0 0.00 0.46 0.46 74 1012.1
20260507024614 44 0 1.0 2.0 0.00 0.46 0.46 73 1011.9
20260507023102 44 0 0.0 2.0 0.00 0.46 0.46 74 1011.7
20260507021558 44 0 0.0 1.0 0.00 0.46 0.46 76 1011.5
20260507020104 44 0 0.0 2.0 0.00 0.46 0.46 75 1011.4
20260507014605 45 0 0.0 1.0 0.00 0.52 0.46 75 1011.3
20260507013103 45 0 0.0 1.0 0.00 0.52 0.46 75 1011.2
20260507011559 46 0 0.0 1.0 0.00 0.52 0.46 72 1011.4
20260507010056 46 0 0.0 1.0 0.00 0.52 0.46 73 1011.3
20260507004557 47 0 0.0 1.0 0.00 0.52 0.46 71 1011.3
20260507003104 48 0 0.0 2.0 0.00 0.52 0.46 69 1011.4
20260507001602 48 186 0.0 7.0 0.00 0.52 0.46 67 1011.2
20260507000056 48 0 0.0 6.0 0.00 0.52 0.46 65 1011.6
20260506234605 49 123 1.0 4.0 0.00 0.52 0.46 63 1011.2
20260506233058 49 124 3.0 8.0 0.00 0.52 0.46 61 1011.2
20260506231600 50 117 0.0 4.0 0.00 0.52 0.46 63 1010.7
20260506224602 51 136 1.0 8.0 0.00 0.52 0.46 61 1010.3
20260506223055 51 132 1.0 6.0 0.00 0.52 0.46 62 1010.1
20260506221557 51 156 2.0 10.0 0.00 0.52 0.46 55 1010.2
20260506220101 51 153 2.0 9.0 0.00 0.52 0.46 59 1010.1
20260506214559 52 180 2.0 7.0 0.00 0.52 0.46 57 1009.7
20260506213055 52 188 3.0 8.0 0.00 0.52 0.46 58 1009.3
20260506211554 52 131 3.0 8.0 0.00 0.52 0.46 60 1009.4
20260506210055 53 111 2.0 10.0 0.00 0.52 0.46 60 1009.3
20260506204556 52 192 1.0 6.0 0.00 0.52 0.46 70 1008.6
20260506203056 51 148 1.0 8.0 0.00 0.52 0.46 69 1008.9
20260506201558 51 140 3.0 8.0 0.00 0.52 0.46 68 1009.0
20260506200059 52 118 2.0 8.0 0.00 0.52 0.46 71 1009.0
20260506194556 52 98 3.0 8.0 0.00 0.52 0.46 71 1009.0
20260506193055 51 149 1.0 7.0 0.00 0.52 0.46 72 1008.8
20260506191555 51 110 2.0 7.0 0.00 0.52 0.46 70 1008.9
20260506190058 52 157 1.0 7.0 0.00 0.52 0.46 71 1008.8
20260506184557 52 118 2.0 7.0 0.00 0.52 0.46 75 1008.7
20260506183056 51 211 1.0 9.0 0.00 0.52 0.46 78 1008.5
20260506181559 51 172 1.0 8.0 0.00 0.52 0.46 79 1008.5
20260506180058 51 111 3.0 9.0 0.00 0.52 0.46 78 1008.5
20260506174557 51 51 3.0 11.0 0.00 0.52 0.46 77 1008.5
20260506173124 51 158 2.0 8.0 0.00 0.52 0.46 77 1008.4
20260506171610 52 319 2.0 9.0 0.00 0.52 0.46 79 1008.4
20260506170055 52 0 1.0 7.0 0.00 0.52 0.46 79 1008.1
20260506164606 52 0 1.0 5.0 0.00 0.52 0.46 82 1008.0
20260506163106 51 208 1.0 8.0 0.00 0.52 0.46 84 1007.8